GW4971 Weather Reports


time (UTC)temp
C
wind
direction
speed
KPH
gust
KPH
rain 1hr
cm
rain 24hr
cm
rain mn
cm
humidity
%
barometer
mb
20260509212520 18 240 4.8 11.3 0.00 0.18 0.13 64 1007.6
20260509211519 18 226 4.8 12.9 0.00 0.18 0.13 62 1007.4
20260509210518 18 288 4.8 14.5 0.00 0.18 0.13 65 1007.5
20260509205539 19 210 3.2 9.7 0.00 0.18 0.13 64 1007.7
20260509204516 18 259 4.8 11.3 0.00 0.18 0.13 66 1007.8
20260509203520 18 227 4.8 9.7 0.00 0.18 0.13 65 1007.8
20260509202520 17 248 6.4 14.5 0.00 0.18 0.13 67 1008.0
20260509201520 17 216 4.8 11.3 0.00 0.18 0.13 69 1008.1
20260509200600 17 246 4.8 14.5 0.00 0.18 0.13 68 1008.1
20260509195517 17 215 6.4 22.5 0.00 0.18 0.13 68 1008.1
20260509194517 17 222 3.2 11.3 0.00 0.18 0.13 70 1008.4
20260509193518 18 252 6.4 12.9 0.00 0.20 0.13 68 1008.4
20260509192520 17 241 4.8 9.7 0.00 0.20 0.13 72 1008.3
20260509191518 17 188 4.8 9.7 0.00 0.20 0.13 71 1008.4
20260509190518 17 238 3.2 9.7 0.00 0.23 0.13 73 1008.7
20260509185538 17 252 3.2 9.7 0.00 0.25 0.13 74 1008.8
20260509184518 16 286 4.8 11.3 0.00 0.25 0.13 76 1008.8
20260509183518 17 218 3.2 8.0 0.00 0.25 0.13 75 1008.8
20260509182539 17 199 3.2 11.3 0.00 0.25 0.13 75 1008.9
20260509181519 16 208 3.2 9.7 0.00 0.25 0.13 77 1008.9
20260509180519 15 218 3.2 11.3 0.00 0.25 0.13 80 1009.2
20260509175519 15 226 3.2 9.7 0.00 0.25 0.13 81 1009.2
20260509174520 15 266 1.6 6.4 0.00 0.25 0.13 82 1009.2
20260509173520 15 197 3.2 11.3 0.00 0.25 0.13 80 1009.2
20260509172520 16 287 3.2 8.0 0.00 0.25 0.13 82 1009.0
20260509171517 15 279 3.2 9.7 0.00 0.25 0.13 83 1008.8
20260509170517 15 290 3.2 12.9 0.00 0.25 0.13 84 1008.9
20260509165520 15 220 3.2 9.7 0.00 0.25 0.13 85 1008.8
20260509164521 15 253 3.2 9.7 0.00 0.25 0.13 86 1008.8
20260509163521 14 245 4.8 8.0 0.00 0.25 0.13 87 1008.6
20260509162518 15 268 3.2 8.0 0.00 0.25 0.13 89 1008.8
20260509161518 15 281 3.2 8.0 0.00 0.25 0.13 90 1009.0
20260509160518 15 209 4.8 9.7 0.00 0.25 0.13 92 1008.6
20260509155530 13 351 3.2 8.0 0.00 0.25 0.13 97 1008.5
20260509154530 12 225 3.2 6.4 0.00 0.25 0.13 97 1008.7
20260509153530 12 331 1.6 4.8 0.00 0.25 0.13 97 1008.8
20260509152531 12 231 1.6 4.8 0.00 0.25 0.13 97 1008.8
20260509151520 11 21 3.2 9.7 0.00 0.25 0.13 97 1008.6
20260509150550 11 176 1.6 6.4 0.00 0.25 0.13 98 1008.8
20260509145531 11 219 3.2 6.4 0.00 0.25 0.13 98 1008.9
20260509144531 11 173 3.2 4.8 0.00 0.25 0.13 98 1008.9
20260509143531 11 243 1.6 4.8 0.00 0.25 0.13 98 1008.8
20260509142551 11 198 1.6 3.2 0.00 0.25 0.13 98 1008.8
20260509141532 11 183 1.6 3.2 0.03 0.25 0.13 98 1008.9
20260509140520 11 241 1.6 9.7 0.03 0.25 0.13 98 1009.0
20260509135517 11 306 1.6 3.2 0.03 0.25 0.13 98 1008.9
20260509134557 11 30 1.6 4.8 0.05 0.25 0.13 98 1009.0
20260509133517 11 1 3.2 6.4 0.05 0.25 0.13 98 1009.1
20260509132537 11 200 1.6 4.8 0.05 0.25 0.13 98 1009.2
20260509131518 10 198 1.6 3.2 0.05 0.23 0.10 98 1009.2
20260509130521 10 321 3.2 11.3 0.05 0.23 0.10 98 1009.1
20260509125538 10 28 1.6 4.8 0.05 0.23 0.10 98 1009.2
20260509124518 10 210 1.6 4.8 0.05 0.20 0.08 98 1009.3
20260509123519 10 10 3.2 6.4 0.03 0.20 0.08 98 1009.3
20260509122518 10 324 1.6 3.2 0.05 0.20 0.08 98 1009.3
20260509121539 10 291 1.6 3.2 0.05 0.20 0.05 97 1009.4
20260509120519 10 166 1.6 3.2 0.05 0.18 0.05 97 1009.4
20260509115519 10 179 0.0 3.2 0.03 0.18 0.05 97 1009.4
20260509114519 10 246 1.6 3.2 0.03 0.18 0.05 97 1009.3
20260509113539 10 199 1.6 3.2 0.03 0.18 0.05 97 1009.3
20260509112519 10 237 1.6 3.2 0.03 0.15 0.03 97 1009.2
20260509111520 10 283 1.6 3.2 0.00 0.15 0.00 98 1009.1
20260509110520 10 319 1.6 4.8 0.00 0.15 0.00 98 1009.0
20260509105520 10 295 1.6 6.4 0.00 0.15 0.00 98 1009.0
20260509104520 10 283 1.6 4.8 0.00 0.15 0.00 98 1008.9
20260509103520 10 353 1.6 6.4 0.00 0.15 0.00 99 1008.9
20260509102520 10 336 1.6 4.8 0.00 0.15 0.00 99 1009.0
20260509101521 9 343 0.0 3.2 0.00 0.15 0.00 99 1009.0
20260509100521 9 342 1.6 3.2 0.00 0.15 0.00 99 1009.1
20260509095521 9 83 1.6 3.2 0.00 0.15 0.00 99 1009.1
20260509094521 9 41 0.0 3.2 0.00 0.15 0.00 99 1009.1
20260509093521 9 327 0.0 1.6 0.00 0.13 0.00 99 1009.2
20260509092521 9 354 0.0 3.2 0.00 0.13 0.00 98 1009.4
20260509091522 8 26 0.0 3.2 0.00 0.13 0.00 98 1009.5
20260509090522 8 94 0.0 1.6 0.00 0.13 0.00 98 1009.5
20260509085542 8 148 0.0 1.6 0.00 0.13 0.00 98 1009.5
20260509084522 8 274 0.0 1.6 0.00 0.13 0.00 98 1009.6
20260509083522 8 0.0 0.0 0.00 0.13 0.00 98 1009.7
20260509082522 8 336 0.0 1.6 0.00 0.13 0.00 98 1009.5
20260509081523 8 134 0.0 1.6 0.00 0.13 0.00 98 1009.4
20260509080523 8 0.0 0.0 0.00 0.13 0.00 98 1009.5
20260509075523 8 343 0.0 1.6 0.00 0.13 0.00 98 1009.4
20260509074523 8 175 0.0 4.8 0.00 0.13 0.00 98 1009.6
20260509073543 8 6 0.0 3.2 0.00 0.13 0.00 98 1009.4
20260509072543 8 0.0 0.0 0.00 0.13 0.00 98 1009.4
20260509071544 8 352 0.0 1.6 0.00 0.13 0.00 98 1009.4
20260509070524 8 323 0.0 1.6 0.00 0.13 0.00 98 1009.3
20260509065544 8 339 0.0 1.6 0.00 0.13 0.00 98 1009.4
20260509064524 8 321 0.0 1.6 0.00 0.13 0.00 98 1009.5
20260509063525 8 0.0 0.0 0.00 0.13 0.00 98 1009.7
20260509062524 8 8 0.0 1.6 0.00 0.13 0.00 98 1009.8
20260509061524 8 90 0.0 1.6 0.00 0.13 0.00 98 1009.9
20260509060545 8 286 0.0 1.6 0.00 0.13 0.00 98 1010.1
20260509055545 8 327 0.0 1.6 0.00 0.13 0.00 98 1010.1
20260509054525 8 328 0.0 3.2 0.00 0.13 0.00 97 1010.1
20260509053525 8 328 0.0 3.2 0.00 0.13 0.00 97 1010.4
20260509052545 8 18 0.0 1.6 0.00 0.13 0.00 97 1010.5
20260509051525 8 36 0.0 3.2 0.00 0.13 0.00 97 1010.5
20260509050526 8 336 1.6 3.2 0.00 0.13 0.00 97 1010.5
20260509045526 9 326 0.0 3.2 0.00 0.13 0.00 97 1010.5
20260509044526 9 335 1.6 3.2 0.00 0.13 0.00 97 1010.6
20260509043527 9 316 0.0 3.2 0.00 0.13 0.00 97 1010.8
20260509042526 9 356 0.0 3.2 0.00 0.13 0.00 97 1011.0
20260509041527 9 342 0.0 3.2 0.00 0.13 0.00 96 1011.0
20260509040547 9 326 0.0 1.6 0.00 0.13 0.00 96 1011.2
20260509035527 9 339 0.0 1.6 0.00 0.13 0.13 96 1011.4
20260509034527 9 0.0 0.0 0.00 0.13 0.13 97 1011.6
20260509033547 9 305 0.0 3.2 0.03 0.13 0.13 96 1011.6
20260509032527 10 348 0.0 1.6 0.03 0.13 0.13 96 1011.8
20260509031548 10 353 0.0 1.6 0.03 0.13 0.13 96 1011.8
20260509030528 10 333 0.0 1.6 0.03 0.13 0.13 96 1012.1
20260509025529 10 326 0.0 1.6 0.03 0.13 0.13 96 1012.1
20260509024528 10 354 0.0 3.2 0.03 0.13 0.13 96 1012.2
20260509023520 10 170 1.6 3.2 0.03 0.13 0.13 95 1012.3
20260509022520 10 356 1.6 4.8 0.00 0.10 0.10 95 1012.4
20260509021517 10 58 1.6 4.8 0.00 0.10 0.10 95 1012.2
20260509020519 10 264 0.0 3.2 0.00 0.10 0.10 94 1011.9
20260509015518 10 334 1.6 4.8 0.00 0.10 0.10 94 1011.8
20260509014518 10 224 0.0 3.2 0.00 0.10 0.10 94 1011.6
20260509013518 10 184 1.6 4.8 0.00 0.10 0.10 93 1011.3
20260509012538 10 327 1.6 4.8 0.00 0.10 0.10 93 1011.2
20260509011558 10 216 0.0 3.2 0.00 0.10 0.10 93 1011.2
20260509010519 10 316 1.6 3.2 0.00 0.10 0.10 93 1011.0
20260509005559 10 318 0.0 3.2 0.00 0.10 0.10 93 1010.9
20260509004519 10 317 0.0 3.2 0.00 0.10 0.10 92 1010.9
20260509003539 10 300 1.6 4.8 0.00 0.10 0.10 91 1010.8
20260509002519 11 327 1.6 3.2 0.00 0.10 0.10 90 1010.9
20260509001541 11 313 3.2 4.8 0.00 0.10 0.10 89 1010.8
20260509000519 11 140 1.6 4.8 0.00 0.10 0.10 89 1010.4
20260508235519 11 5 0.0 3.2 0.00 0.10 0.10 90 1010.7
20260508234517 11 323 1.6 3.2 0.00 0.10 0.10 90 1010.8
20260508233517 11 343 1.6 3.2 0.00 0.10 0.10 90 1010.8
20260508232517 11 345 0.0 3.2 0.00 0.10 0.10 89 1010.9
20260508231520 11 323 1.6 3.2 0.00 0.10 0.10 88 1011.0
20260508230521 12 340 1.6 3.2 0.00 0.10 0.10 88 1010.9
20260508225518 12 329 1.6 3.2 0.00 0.10 0.10 88 1010.9
20260508224538 12 344 0.0 3.2 0.00 0.10 0.10 88 1010.9
20260508223518 12 352 1.6 4.8 0.00 0.10 0.10 87 1011.2
20260508222518 12 352 1.6 4.8 0.00 0.10 0.10 86 1011.2
20260508221539 12 355 1.6 3.2 0.00 0.10 0.10 84 1011.0
20260508220519 13 339 1.6 3.2 0.00 0.10 0.10 83 1011.1
20260508215518 13 336 1.6 3.2 0.00 0.10 0.10 80 1011.1
20260508214519 13 321 1.6 3.2 0.00 0.10 0.10 82 1011.1
20260508213519 13 343 0.0 3.2 0.00 0.10 0.10 79 1011.1